Simultaneous Nadir Overpasses (SNOs) Predictions

Prediction of SNOs near equator between AQUA and NPP Satellite Orbit:

Table of predicted SNOs near equator for the next 14.0 days since TLE Epoch: 7/3/2021
Index Date (AQUA) Time (AQUA) AQUA Lat,Lon Date (NPP) Time (NPP) NPP Lat,Lon Distance(km) Time Diff (sec)
1 07/03/2021 16:24:46 -3.13, 137.21 07/03/2021 16:15:38 -3.08, 136.84 41.87 548
2 07/03/2021 17:13:01 -1.45, -54.19 07/03/2021 17:05:08 -1.58, -54.82 71.66 473
3 07/06/2021 07:52:43 6.09, 84.80 07/06/2021 07:42:45 6.04, 84.61 21.77 598
4 07/06/2021 08:40:51 -1.59,-106.58 07/06/2021 08:32:08 -1.47,-107.03 51.81 523
5 07/06/2021 09:29:05 -3.04, 62.02 07/06/2021 09:21:38 -3.19, 61.30 81.50 447
6 07/09/2021 00:08:47 4.50,-158.99 07/08/2021 23:59:15 4.44,-159.27 31.74 572
7 07/09/2021 00:56:55 -0.00, 9.63 07/09/2021 00:48:38 0.13, 9.09 61.75 497
8 07/09/2021 01:45:09 -4.63, 178.24 07/09/2021 01:38:08 -4.79, 177.43 91.27 421
9 07/11/2021 15:42:49 -29.95, 143.41 07/11/2021 15:32:49 -30.57, 142.84 87.84 600
10 07/11/2021 16:24:52 2.97, -42.79 07/11/2021 16:15:46 2.90, -43.16 41.84 546
11 07/11/2021 17:12:59 1.58, 125.84 07/11/2021 17:05:08 1.73, 125.21 71.70 471
12 07/14/2021 07:52:40 -5.97, -95.17 07/14/2021 07:42:44 -5.90, -95.36 22.13 596
13 07/14/2021 08:40:55 1.40, 73.42 07/14/2021 08:32:15 1.31, 72.97 51.89 520
14 07/14/2021 09:29:03 3.10,-117.96 07/14/2021 09:21:38 3.26,-118.68 81.69 445
15 07/17/2021 00:08:43 -4.34, 21.05 07/16/2021 23:59:14 -4.31, 20.76 32.13 569
16 07/17/2021 00:56:59 -0.17,-170.37 07/17/2021 00:48:45 -0.28,-170.91 61.95 494
17 07/17/2021 01:45:06 4.73, -1.74 07/17/2021 01:38:07 4.91, -2.54 91.46 419
